TWB332 RJBB-RKPC

Flight info

Callsign TWB332
Flight time 1h 32m
Altitude 32000
Route SOUJA Y281 STOUT Y20 IKE A595 TAMNA TAMNA2P
Aircraft B738/M-SDE2E3FGHIRWXY/LB1

Departure

Time 2026-04-29 21:21
Airport Kansai International Airport (RJBB)

Arrival

Time 2026-04-29 22:54
Airport Jeju International Airport (RKPC)
Time Latitude Longitude Altitude Speed Heading
2026-04-29 20:39 34.43812 135.24952 18 ft 0 kts 140°
2026-04-29 21:03 34.43816 135.24949 19 ft 3 kts 140°
2026-04-29 21:03 34.43837 135.24929 20 ft 4 kts 141°
2026-04-29 21:04 34.43857 135.24907 20 ft 4 kts 126°
2026-04-29 21:04 34.43868 135.24879 18 ft 4 kts 96°
2026-04-29 21:04 34.43865 135.24852 18 ft 2 kts 51°
2026-04-29 21:04 34.43861 135.24847 18 ft 0 kts 51°
2026-04-29 21:07 34.43876 135.24870 21 ft 6 kts 51°
2026-04-29 21:08 34.43916 135.24929 18 ft 12 kts 51°
2026-04-29 21:08 34.43954 135.24987 18 ft 15 kts 51°
2026-04-29 21:08 34.44030 135.25101 18 ft 19 kts 51°
2026-04-29 21:08 34.44118 135.25232 19 ft 19 kts 51°
2026-04-29 21:09 34.44103 135.25352 18 ft 17 kts 140°
2026-04-29 21:09 34.44014 135.25439 18 ft 16 kts 140°
2026-04-29 21:09 34.43929 135.25523 18 ft 15 kts 141°
2026-04-29 21:09 34.43854 135.25579 18 ft 10 kts 185°
2026-04-29 21:10 34.43814 135.25518 18 ft 10 kts 244°
2026-04-29 21:10 34.43767 135.25433 18 ft 16 kts 231°
2026-04-29 21:10 34.43683 135.25307 18 ft 21 kts 230°
2026-04-29 21:10 34.43590 135.25169 18 ft 22 kts 230°
2026-04-29 21:11 34.43493 135.25023 19 ft 22 kts 231°
2026-04-29 21:11 34.43399 135.24881 18 ft 21 kts 231°
2026-04-29 21:11 34.43306 135.24744 18 ft 21 kts 231°
2026-04-29 21:11 34.43213 135.24607 19 ft 22 kts 231°
2026-04-29 21:12 34.43113 135.24458 18 ft 23 kts 231°
2026-04-29 21:12 34.43014 135.24310 18 ft 22 kts 231°
2026-04-29 21:12 34.42918 135.24167 18 ft 22 kts 231°
2026-04-29 21:12 34.42824 135.24027 18 ft 21 kts 231°
2026-04-29 21:13 34.42740 135.23900 18 ft 15 kts 231°
2026-04-29 21:13 34.42746 135.23796 18 ft 14 kts 319°
2026-04-29 21:13 34.42820 135.23722 18 ft 15 kts 321°
2026-04-29 21:13 34.42908 135.23635 20 ft 18 kts 321°
2026-04-29 21:14 34.43004 135.23541 18 ft 15 kts 320°
2026-04-29 21:14 34.42997 135.23431 18 ft 15 kts 231°
2026-04-29 21:14 34.42930 135.23329 19 ft 17 kts 232°
2026-04-29 21:14 34.42962 135.23216 20 ft 16 kts 321°
2026-04-29 21:15 34.43062 135.23118 21 ft 21 kts 321°
2026-04-29 21:15 34.43179 135.23004 28 ft 21 kts 321°
2026-04-29 21:15 34.43300 135.22886 28 ft 24 kts 322°
2026-04-29 21:15 34.43442 135.22747 28 ft 28 kts 321°
2026-04-29 21:16 34.43591 135.22602 28 ft 27 kts 321°
2026-04-29 21:16 34.43730 135.22467 28 ft 25 kts 321°
2026-04-29 21:16 34.43788 135.22355 28 ft 15 kts 245°
2026-04-29 21:16 34.43724 135.22255 28 ft 16 kts 231°
2026-04-29 21:17 34.43644 135.22137 28 ft 20 kts 231°
2026-04-29 21:17 34.43552 135.21999 28 ft 22 kts 231°
2026-04-29 21:17 34.43450 135.21849 28 ft 24 kts 231°
2026-04-29 21:17 34.43340 135.21685 28 ft 26 kts 230°
2026-04-29 21:18 34.43223 135.21510 28 ft 28 kts 231°
2026-04-29 21:18 34.43096 135.21321 28 ft 30 kts 230°
2026-04-29 21:18 34.42964 135.21124 28 ft 31 kts 231°
2026-04-29 21:18 34.42830 135.20926 28 ft 28 kts 231°
2026-04-29 21:19 34.42758 135.20817 28 ft 11 kts 234°
2026-04-29 21:19 34.42756 135.20747 27 ft 8 kts 294°
2026-04-29 21:19 34.42797 135.20700 26 ft 9 kts 323°
2026-04-29 21:19 34.42851 135.20649 26 ft 9 kts 323°
2026-04-29 21:20 34.42898 135.20681 24 ft 0 kts 51°
2026-04-29 21:20 34.42901 135.20685 24 ft 4 kts 51°
2026-04-29 21:20 34.43021 135.20864 27 ft 59 kts 51°
2026-04-29 21:21 34.43417 135.21454 32 ft 119 kts 51°
2026-04-29 21:21 34.44035 135.22378 159 ft 152 kts 51°
2026-04-29 21:21 34.44710 135.23381 678 ft 160 kts 51°
2026-04-29 21:21 34.45456 135.24407 1321 ft 166 kts 37°
2026-04-29 21:22 34.46571 135.24791 1867 ft 180 kts 354°
2026-04-29 21:22 34.47761 135.24047 2128 ft 211 kts 313°
2026-04-29 21:22 34.48383 135.22362 2335 ft 232 kts 278°
2026-04-29 21:22 34.48545 135.20355 2703 ft 249 kts 276°
2026-04-29 21:23 34.48763 135.18158 2951 ft 272 kts 279°
2026-04-29 21:23 34.49055 135.15922 3974 ft 262 kts 279°
2026-04-29 21:23 34.49351 135.13737 4654 ft 262 kts 279°
2026-04-29 21:23 34.49656 135.11563 5335 ft 264 kts 279°
2026-04-29 21:24 34.50348 135.09504 6069 ft 269 kts 306°
2026-04-29 21:24 34.51832 135.08118 6812 ft 275 kts 335°
2026-04-29 21:24 34.53679 135.07484 7560 ft 279 kts 346°
2026-04-29 21:24 34.55594 135.07019 8283 ft 282 kts 345°
2026-04-29 21:25 34.57519 135.06511 8975 ft 284 kts 340°
2026-04-29 21:25 34.59197 135.05314 9659 ft 280 kts 309°
2026-04-29 21:25 34.60205 135.03336 10378 ft 276 kts 289°
2026-04-29 21:25 34.60832 135.01102 10643 ft 294 kts 285°
2026-04-29 21:26 34.61302 134.98609 10798 ft 313 kts 274°
2026-04-29 21:26 34.61466 134.95883 10971 ft 332 kts 272°
2026-04-29 21:26 34.61605 134.93039 11358 ft 342 kts 272°
2026-04-29 21:26 34.61758 134.90143 11977 ft 345 kts 272°
2026-04-29 21:27 34.61931 134.87218 12649 ft 347 kts 272°
2026-04-29 21:27 34.62116 134.84285 13312 ft 349 kts 273°
2026-04-29 21:27 34.62307 134.81334 13936 ft 352 kts 273°
2026-04-29 21:27 34.62499 134.78366 14568 ft 353 kts 272°
2026-04-29 21:28 34.62530 134.75394 15206 ft 352 kts 266°
2026-04-29 21:28 34.62353 134.72464 15812 ft 353 kts 264°
2026-04-29 21:28 34.62112 134.69487 16438 ft 354 kts 263°
2026-04-29 21:28 34.61863 134.66504 17023 ft 356 kts 263°
2026-04-29 21:29 34.61623 134.63504 17571 ft 358 kts 264°
2026-04-29 21:29 34.61392 134.60488 18132 ft 359 kts 264°
2026-04-29 21:29 34.61170 134.57456 18614 ft 362 kts 264°
2026-04-29 21:29 34.60952 134.54410 19070 ft 363 kts 264°
2026-04-29 21:30 34.60737 134.51348 19542 ft 364 kts 264°
2026-04-29 21:30 34.60523 134.48280 20008 ft 365 kts 264°
2026-04-29 21:30 34.60308 134.45206 20444 ft 366 kts 264°
2026-04-29 21:30 34.60095 134.42161 20898 ft 367 kts 263°
2026-04-29 21:31 34.59878 134.39067 21309 ft 369 kts 263°
2026-04-29 21:31 34.59658 134.35955 21700 ft 371 kts 263°
2026-04-29 21:31 34.59437 134.32821 22110 ft 372 kts 263°
2026-04-29 21:31 34.59214 134.29686 22512 ft 374 kts 263°
2026-04-29 21:32 34.58990 134.26540 22895 ft 375 kts 263°
2026-04-29 21:32 34.58764 134.23381 23262 ft 377 kts 263°
2026-04-29 21:32 34.58536 134.20204 23640 ft 378 kts 263°
2026-04-29 21:32 34.58307 134.17018 23944 ft 380 kts 263°
2026-04-29 21:33 34.58076 134.13820 24241 ft 381 kts 263°
2026-04-29 21:33 34.57844 134.10615 24518 ft 382 kts 263°
2026-04-29 21:33 34.57610 134.07398 24777 ft 384 kts 263°
2026-04-29 21:33 34.57460 134.04147 25022 ft 388 kts 269°
2026-04-29 21:34 34.57883 134.00886 25310 ft 395 kts 278°
2026-04-29 21:34 34.58501 133.97640 25612 ft 395 kts 278°
2026-04-29 21:34 34.59107 133.94385 25863 ft 397 kts 277°
2026-04-29 21:34 34.59701 133.91099 26095 ft 399 kts 277°
2026-04-29 21:35 34.60285 133.87806 26423 ft 398 kts 277°
2026-04-29 21:35 34.60854 133.84572 26839 ft 395 kts 277°
2026-04-29 21:35 34.61425 133.81317 27284 ft 393 kts 276°
2026-04-29 21:35 34.61992 133.78073 27693 ft 391 kts 276°
2026-04-29 21:36 34.62486 133.74838 28063 ft 387 kts 270°
2026-04-29 21:36 34.62415 133.71617 28427 ft 380 kts 258°
2026-04-29 21:36 34.61959 133.68473 28872 ft 376 kts 257°
2026-04-29 21:36 34.61461 133.65363 29314 ft 374 kts 256°
2026-04-29 21:37 34.60956 133.62262 29699 ft 374 kts 256°
2026-04-29 21:37 34.60455 133.59163 30094 ft 373 kts 256°
2026-04-29 21:37 34.59967 133.56106 30446 ft 373 kts 256°
2026-04-29 21:37 34.59481 133.53021 30834 ft 370 kts 256°
2026-04-29 21:38 34.59003 133.49967 31235 ft 367 kts 256°
2026-04-29 21:38 34.58530 133.46926 31592 ft 366 kts 256°
2026-04-29 21:38 34.58058 133.43892 31910 ft 365 kts 256°
2026-04-29 21:38 34.57586 133.40866 32136 ft 366 kts 256°
2026-04-29 21:39 34.57111 133.37821 32137 ft 366 kts 256°
2026-04-29 21:39 34.56171 133.31796 32136 ft 362 kts 256°
2026-04-29 21:40 34.55230 133.25795 32131 ft 362 kts 256°
2026-04-29 21:40 34.54291 133.19826 32154 ft 363 kts 256°
2026-04-29 21:41 34.53340 133.13802 32141 ft 364 kts 256°
2026-04-29 21:41 34.52382 133.07750 32135 ft 365 kts 256°
2026-04-29 21:42 34.51420 133.01691 32142 ft 366 kts 255°
2026-04-29 21:42 34.50617 132.96652 32135 ft 366 kts 255°
2026-04-29 21:43 34.49486 132.89570 32129 ft 366 kts 255°
2026-04-29 21:43 34.48522 132.83557 32125 ft 365 kts 255°
2026-04-29 21:44 34.47552 132.77520 32128 ft 364 kts 255°
2026-04-29 21:44 34.46576 132.71495 32134 ft 363 kts 255°
2026-04-29 21:45 34.45592 132.65497 32109 ft 363 kts 255°
2026-04-29 21:45 34.44613 132.59543 32133 ft 363 kts 255°
2026-04-29 21:46 34.43622 132.53537 32125 ft 363 kts 255°
2026-04-29 21:46 34.42630 132.47530 32129 ft 364 kts 255°
2026-04-29 21:47 34.41634 132.41520 32130 ft 364 kts 255°
2026-04-29 21:47 34.40636 132.35514 32130 ft 364 kts 255°
2026-04-29 21:48 34.39689 132.29505 32125 ft 363 kts 255°
2026-04-29 21:48 34.38753 132.23507 32124 ft 363 kts 255°
2026-04-29 21:49 34.37808 132.17507 32143 ft 363 kts 255°
2026-04-29 21:49 34.36869 132.11495 32122 ft 363 kts 255°
2026-04-29 21:50 34.35930 132.05489 32117 ft 363 kts 255°
2026-04-29 21:50 34.34994 131.99526 32095 ft 363 kts 255°
2026-04-29 21:51 34.34049 131.93534 32107 ft 362 kts 255°
2026-04-29 21:51 34.32632 131.84570 32127 ft 361 kts 255°
2026-04-29 21:52 34.31687 131.78628 32117 ft 362 kts 254°
2026-04-29 21:52 34.30730 131.72622 32117 ft 363 kts 254°
2026-04-29 21:53 34.29771 131.66632 32073 ft 362 kts 254°
2026-04-29 21:53 34.28804 131.60657 32095 ft 362 kts 254°
2026-04-29 21:54 34.27834 131.54681 32129 ft 362 kts 253°
2026-04-29 21:54 34.26861 131.48695 32109 ft 363 kts 253°
2026-04-29 21:55 34.25892 131.42748 32096 ft 363 kts 253°
2026-04-29 21:55 34.24914 131.36768 32101 ft 363 kts 253°
2026-04-29 21:56 34.23932 131.30787 32093 ft 363 kts 253°
2026-04-29 21:56 34.23114 131.25814 32094 ft 362 kts 253°
2026-04-29 21:57 34.22129 131.19845 32097 ft 362 kts 253°
2026-04-29 21:57 34.21142 131.13883 32089 ft 361 kts 253°
2026-04-29 21:58 34.20154 131.07931 32090 ft 361 kts 253°
2026-04-29 21:58 34.19113 131.02004 32079 ft 358 kts 249°
2026-04-29 21:59 34.17319 130.96494 32078 ft 355 kts 243°
2026-04-29 21:59 34.15343 130.91017 32092 ft 357 kts 243°
2026-04-29 22:00 34.13373 130.85497 32088 ft 359 kts 243°
2026-04-29 22:00 34.11396 130.79957 32083 ft 360 kts 243°
2026-04-29 22:01 34.09404 130.74406 32080 ft 361 kts 243°
2026-04-29 22:01 34.07409 130.68852 32067 ft 361 kts 243°
2026-04-29 22:02 34.05407 130.63285 32077 ft 362 kts 243°
2026-04-29 22:02 34.03394 130.57692 32075 ft 364 kts 243°
2026-04-29 22:03 34.01416 130.52108 32074 ft 365 kts 243°
2026-04-29 22:03 33.99426 130.46475 32068 ft 365 kts 243°
2026-04-29 22:04 33.97431 130.40842 32068 ft 365 kts 243°
2026-04-29 22:04 33.95433 130.35217 32069 ft 364 kts 243°
2026-04-29 22:05 33.93439 130.29614 32063 ft 363 kts 243°
2026-04-29 22:06 33.90470 130.21290 32072 ft 361 kts 243°
2026-04-29 22:06 33.88486 130.15740 32055 ft 360 kts 243°
2026-04-29 22:07 33.86508 130.10214 32067 ft 359 kts 243°
2026-04-29 22:07 33.84528 130.04694 32062 ft 359 kts 243°
2026-04-29 22:08 33.82543 129.99170 32064 ft 360 kts 243°
2026-04-29 22:08 33.80557 129.93652 32057 ft 359 kts 243°
2026-04-29 22:09 33.78584 129.88174 32054 ft 359 kts 243°
2026-04-29 22:09 33.76595 129.82666 32054 ft 359 kts 243°
2026-04-29 22:10 33.74838 129.77043 32082 ft 363 kts 251°
2026-04-29 22:10 33.74039 129.71012 32078 ft 367 kts 257°
2026-04-29 22:11 33.73409 129.64927 32072 ft 367 kts 256°
2026-04-29 22:11 33.72769 129.58885 32059 ft 366 kts 256°
2026-04-29 22:12 33.72114 129.52818 32059 ft 366 kts 256°
2026-04-29 22:12 33.71452 129.46750 32053 ft 366 kts 256°
2026-04-29 22:13 33.70788 129.40686 32056 ft 366 kts 256°
2026-04-29 22:13 33.70120 129.34615 32084 ft 366 kts 256°
2026-04-29 22:14 33.69448 129.28540 32067 ft 367 kts 256°
2026-04-29 22:14 33.68780 129.22499 32055 ft 367 kts 256°
2026-04-29 22:15 33.68106 129.16415 32045 ft 367 kts 256°
2026-04-29 22:15 33.67430 129.10332 32075 ft 367 kts 256°
2026-04-29 22:16 33.66750 129.04246 32061 ft 368 kts 256°
2026-04-29 22:16 33.66067 128.98156 32059 ft 368 kts 256°
2026-04-29 22:17 33.65386 128.92114 32057 ft 367 kts 256°
2026-04-29 22:17 33.64698 128.86036 32070 ft 367 kts 256°
2026-04-29 22:18 33.64008 128.79962 32068 ft 366 kts 255°
2026-04-29 22:18 33.63318 128.73921 32042 ft 364 kts 255°
2026-04-29 22:19 33.62629 128.67911 32058 ft 363 kts 255°
2026-04-29 22:19 33.61942 128.61956 32068 ft 363 kts 255°
2026-04-29 22:20 33.61247 128.55951 32061 ft 363 kts 255°
2026-04-29 22:20 33.60549 128.49943 32060 ft 364 kts 255°
2026-04-29 22:21 33.59847 128.43928 32060 ft 364 kts 255°
2026-04-29 22:21 33.59140 128.37893 32064 ft 365 kts 255°
2026-04-29 22:22 33.58430 128.31861 32040 ft 365 kts 255°
2026-04-29 22:22 33.57746 128.25816 32060 ft 366 kts 256°
2026-04-29 22:23 33.57080 128.19799 32059 ft 366 kts 256°
2026-04-29 22:23 33.56405 128.13736 32073 ft 367 kts 256°
2026-04-29 22:24 33.55724 128.07659 32055 ft 367 kts 256°
2026-04-29 22:24 33.55040 128.01592 32053 ft 367 kts 256°
2026-04-29 22:25 33.54353 127.95529 32056 ft 366 kts 256°
2026-04-29 22:25 33.53669 127.89524 32033 ft 366 kts 256°
2026-04-29 22:25 33.53330 127.86531 32042 ft 355 kts 256°
2026-04-29 22:26 33.53006 127.83649 32045 ft 342 kts 255°
2026-04-29 22:26 33.52687 127.80847 31829 ft 338 kts 255°
2026-04-29 22:26 33.52371 127.78092 31602 ft 330 kts 255°
2026-04-29 22:26 33.52057 127.75380 31243 ft 327 kts 255°
2026-04-29 22:27 33.51745 127.72694 30894 ft 324 kts 255°
2026-04-29 22:27 33.51435 127.70024 30556 ft 322 kts 256°
2026-04-29 22:27 33.51125 127.67370 30185 ft 321 kts 256°
2026-04-29 22:27 33.50817 127.64724 29755 ft 319 kts 256°
2026-04-29 22:28 33.50511 127.62098 29368 ft 316 kts 256°
2026-04-29 22:28 33.50208 127.59500 28983 ft 313 kts 256°
2026-04-29 22:28 33.49908 127.56926 28611 ft 311 kts 256°
2026-04-29 22:28 33.49613 127.54398 28236 ft 308 kts 257°
2026-04-29 22:29 33.49316 127.51868 27872 ft 305 kts 257°
2026-04-29 22:29 33.49021 127.49358 27516 ft 303 kts 257°
2026-04-29 22:29 33.48728 127.46865 27184 ft 301 kts 257°
2026-04-29 22:29 33.48436 127.44391 26793 ft 299 kts 257°
2026-04-29 22:30 33.48146 127.41931 26447 ft 297 kts 257°
2026-04-29 22:30 33.47858 127.39490 26105 ft 295 kts 258°
2026-04-29 22:30 33.47574 127.37093 25757 ft 294 kts 258°
2026-04-29 22:30 33.47287 127.34672 25406 ft 292 kts 258°
2026-04-29 22:31 33.47001 127.32266 25051 ft 292 kts 258°
2026-04-29 22:31 33.46713 127.29858 24703 ft 291 kts 258°
2026-04-29 22:31 33.46426 127.27463 24355 ft 291 kts 258°
2026-04-29 22:31 33.46138 127.25065 24010 ft 291 kts 258°
2026-04-29 22:32 33.45849 127.22665 23675 ft 291 kts 258°
2026-04-29 22:32 33.45561 127.20271 23263 ft 290 kts 258°
2026-04-29 22:32 33.45275 127.17888 22898 ft 288 kts 258°
2026-04-29 22:32 33.44989 127.15516 22521 ft 287 kts 258°
2026-04-29 22:33 33.44703 127.13151 22129 ft 286 kts 258°
2026-04-29 22:33 33.44418 127.10800 21784 ft 285 kts 258°
2026-04-29 22:33 33.44138 127.08485 21445 ft 283 kts 258°
2026-04-29 22:33 33.43855 127.06157 21106 ft 281 kts 259°
2026-04-29 22:34 33.43574 127.03847 20778 ft 280 kts 259°
2026-04-29 22:34 33.43294 127.01548 20453 ft 279 kts 259°
2026-04-29 22:34 33.43014 126.99253 20103 ft 278 kts 259°
2026-04-29 22:34 33.42735 126.96972 19800 ft 276 kts 259°
2026-04-29 22:35 33.42458 126.94702 19477 ft 275 kts 259°
2026-04-29 22:35 33.42180 126.92436 19163 ft 274 kts 259°
2026-04-29 22:35 33.41903 126.90179 18841 ft 274 kts 259°
2026-04-29 22:35 33.41625 126.87919 18526 ft 274 kts 259°
2026-04-29 22:36 33.41347 126.85664 18173 ft 275 kts 259°
2026-04-29 22:36 33.41072 126.83432 17845 ft 275 kts 259°
2026-04-29 22:36 33.40793 126.81173 17504 ft 273 kts 259°
2026-04-29 22:36 33.40516 126.78928 17184 ft 272 kts 259°
2026-04-29 22:37 33.40240 126.76699 16872 ft 270 kts 259°
2026-04-29 22:37 33.39966 126.74482 16590 ft 268 kts 259°
2026-04-29 22:37 33.39692 126.72278 16284 ft 266 kts 259°
2026-04-29 22:37 33.39420 126.70089 15977 ft 265 kts 259°
2026-04-29 22:38 33.39149 126.67916 15676 ft 263 kts 259°
2026-04-29 22:38 33.38919 126.65741 15367 ft 264 kts 267°
2026-04-29 22:38 33.39314 126.63583 15069 ft 271 kts 290°
2026-04-29 22:38 33.40353 126.61666 14804 ft 281 kts 306°
2026-04-29 22:39 33.41922 126.60230 14515 ft 296 kts 324°
2026-04-29 22:39 33.43773 126.59069 14222 ft 305 kts 326°
2026-04-29 22:39 33.45692 126.57919 13904 ft 310 kts 327°
2026-04-29 22:39 33.47626 126.56767 13562 ft 310 kts 327°
2026-04-29 22:40 33.49558 126.55608 13228 ft 310 kts 327°
2026-04-29 22:40 33.51479 126.54446 12931 ft 308 kts 327°
2026-04-29 22:40 33.53390 126.53283 12626 ft 307 kts 326°
2026-04-29 22:40 33.55288 126.52122 12320 ft 305 kts 327°
2026-04-29 22:41 33.57172 126.50968 12027 ft 302 kts 327°
2026-04-29 22:41 33.59044 126.49821 11726 ft 301 kts 327°
2026-04-29 22:41 33.60903 126.48680 11425 ft 300 kts 327°
2026-04-29 22:41 33.62732 126.47556 11140 ft 299 kts 327°
2026-04-29 22:42 33.64582 126.46420 10827 ft 298 kts 327°
2026-04-29 22:42 33.66429 126.45284 10523 ft 298 kts 327°
2026-04-29 22:42 33.68277 126.44148 10243 ft 298 kts 327°
2026-04-29 22:42 33.70063 126.42971 10087 ft 286 kts 318°
2026-04-29 22:43 33.71301 126.41237 10004 ft 265 kts 295°
2026-04-29 22:43 33.71915 126.39191 9650 ft 258 kts 277°
2026-04-29 22:43 33.72191 126.37082 9414 ft 254 kts 276°
2026-04-29 22:43 33.72271 126.34997 9169 ft 248 kts 257°
2026-04-29 22:44 33.71610 126.33132 8930 ft 243 kts 235°
2026-04-29 22:44 33.70440 126.31688 8646 ft 243 kts 216°
2026-04-29 22:44 33.68920 126.30800 8378 ft 243 kts 201°
2026-04-29 22:44 33.67333 126.30177 8106 ft 243 kts 199°
2026-04-29 22:45 33.65712 126.29585 7827 ft 244 kts 198°
2026-04-29 22:45 33.64086 126.28993 7527 ft 245 kts 198°
2026-04-29 22:45 33.62459 126.28395 7253 ft 244 kts 199°
2026-04-29 22:45 33.60842 126.27796 6933 ft 242 kts 198°
2026-04-29 22:46 33.59240 126.27197 6651 ft 238 kts 198°
2026-04-29 22:46 33.57672 126.26609 6366 ft 234 kts 197°
2026-04-29 22:46 33.56650 126.26224 6175 ft 232 kts 197°
2026-04-29 22:46 33.55113 126.25644 5924 ft 230 kts 196°
2026-04-29 22:47 33.53117 126.24890 5586 ft 223 kts 195°
2026-04-29 22:47 33.52121 126.24514 5414 ft 220 kts 196°
2026-04-29 22:47 33.50695 126.23976 5137 ft 214 kts 194°
2026-04-29 22:47 33.49288 126.23445 4878 ft 210 kts 194°
2026-04-29 22:48 33.47902 126.22922 4626 ft 207 kts 195°
2026-04-29 22:48 33.46512 126.22629 4353 ft 202 kts 169°
2026-04-29 22:48 33.45299 126.23352 4167 ft 195 kts 132°
2026-04-29 22:48 33.44522 126.24670 3937 ft 195 kts 117°
2026-04-29 22:49 33.43880 126.26104 3736 ft 196 kts 116°
2026-04-29 22:49 33.43231 126.27551 3495 ft 198 kts 116°
2026-04-29 22:49 33.42574 126.29011 3240 ft 200 kts 116°
2026-04-29 22:49 33.42107 126.30528 3146 ft 188 kts 90°
2026-04-29 22:50 33.42504 126.31944 3012 ft 179 kts 59°
2026-04-29 22:50 33.43112 126.33234 2775 ft 175 kts 62°
2026-04-29 22:50 33.43717 126.34511 2552 ft 178 kts 60°
2026-04-29 22:50 33.44342 126.35755 2307 ft 173 kts 59°
2026-04-29 22:51 33.44948 126.36945 2062 ft 162 kts 59°
2026-04-29 22:51 33.45517 126.38061 1835 ft 152 kts 59°
2026-04-29 22:51 33.46558 126.40107 1454 ft 134 kts 58°
2026-04-29 22:52 33.47043 126.41055 1269 ft 134 kts 57°
2026-04-29 22:52 33.47536 126.42021 1084 ft 138 kts 58°
2026-04-29 22:52 33.48041 126.43008 893 ft 138 kts 58°
2026-04-29 22:52 33.48529 126.43973 693 ft 133 kts 58°
2026-04-29 22:53 33.49020 126.44936 530 ft 139 kts 59°
2026-04-29 22:53 33.49539 126.45959 328 ft 146 kts 59°
2026-04-29 22:53 33.50066 126.46993 126 ft 148 kts 59°
2026-04-29 22:53 33.50562 126.47959 93 ft 111 kts 58°
2026-04-29 22:54 33.50856 126.48531 92 ft 45 kts 58°
2026-04-29 22:54 33.50992 126.48815 91 ft 34 kts 69°
2026-04-29 22:54 33.51028 126.49043 87 ft 19 kts 88°
2026-04-29 22:54 33.51010 126.49123 87 ft 7 kts 152°
2026-04-29 22:55 33.50965 126.49108 90 ft 7 kts 220°
2026-04-29 22:55 33.50935 126.49062 87 ft 7 kts 237°
2026-04-29 22:55 33.50910 126.49014 87 ft 7 kts 239°
2026-04-29 22:55 33.50886 126.48967 90 ft 7 kts 238°
2026-04-29 22:56 33.50862 126.48920 91 ft 7 kts 239°
2026-04-29 22:56 33.50839 126.48874 88 ft 6 kts 236°
2026-04-29 22:56 33.50800 126.48854 88 ft 6 kts 176°
2026-04-29 22:56 33.50752 126.48881 89 ft 9 kts 148°
2026-04-29 22:57 33.50705 126.48927 88 ft 9 kts 115°
2026-04-29 22:57 33.50716 126.48995 91 ft 8 kts 94°
2026-04-29 22:57 33.50678 126.49031 89 ft 7 kts 152°
2026-04-29 22:57 33.50646 126.49052 92 ft 3 kts 151°
2026-04-29 22:58 33.50641 126.49055 92 ft 0 kts 152°